Wind_Speed
16 14 14 13 11 9 7 6 5 4 2 1 2 3 3 4 5 7 9 10 11 12 11 11 11 10 9 8 7 6 5 5 7 7 7 7 9 9 9 10 10 11 12 12 13 13 14 13 13 17 18 14 12 14 16 18 20 21 21 22 23 22 21 21 21 21 21 21 21 21 21 21 21 21 22 23 24 25 26 26 26 27 27 28 28
15 14 14 13 11 9 7 5 5 4 2 0 1 1 2 4 6 7 9 11 12 13 12 12 12 11 9 9 9 8 7 7 8 8 7 7 7 7 7 8 9 11 13 14 14 13 13 12 10 14 16 12 10 11 14 17 19 21 21 23 24 24 23 23 23 23 22 21 21 21 22 21 21 20 20 21 21 22 24 25 25 26 26 26 27
15 14 13 13 11 10 7 5 5 5 3 3 2 1 2 5 7 8 11 13 12 12 12 12 12 10 9 9 10 11 10 9 9 9 8 7 8 7 7 7 9 11 12 14 14 13 13 11 9 12 12 9 8 9 13 15 18 21 22 23 25 25 24 23 23 22 23 23 23 23 22 22 21 21 21 21 21 21 21 22 23 23 24 25 26
15 14 13 13 12 10 8 7 7 6 6 5 4 4 4 6 8 9 12 12 11 11 11 13 12 9 8 9 10 11 10 9 9 9 9 9 9 7 7 7 8 10 11 13 13 13 12 8 8 8 8 9 8 8 11 13 17 20 21 23 25 25 24 23 23 22 23 24 24 24 23 22 22 22 22 22 22 21 21 22 21 21 21 21 22
15 15 15 14 13 11 10 11 11 9 7 6 6 7 6 8 9 10 11 11 11 10 11 13 12 9 8 9 10 10 10 8 9 10 10 10 9 8 8 7 9 9 9 11 12 13 10 5 7 6 7 9 9 8 9 10 15 20 22 24 24 25 22 20 22 22 22 23 24 24 23 23 23 23 23 23 22 22 22 22 22 21 19 19 19
16 16 16 16 15 13 12 12 12 10 8 7 8 9 9 9 9 10 11 11 11 10 10 12 11 9 9 11 11 11 8 8 9 10 11 11 9 9 9 8 9 10 10 11 11 12 7 2 5 5 5 7 7 7 7 9 15 19 22 22 21 24 21 18 20 22 21 22 23 23 23 23 23 24 24 23 22 22 21 21 21 20 19 18 17
16 15 14 14 14 13 12 12 12 10 8 8 8 9 9 10 10 10 10 10 10 10 10 11 11 10 10 11 12 10 7 7 10 11 13 12 9 9 10 8 9 10 10 11 10 10 9 7 6 6 5 6 6 6 7 11 14 14 16 16 17 21 20 18 20 21 20 21 21 21 22 22 23 24 24 23 22 21 21 20 19 19 19 18 17
14 14 13 12 11 11 11 11 11 10 8 9 9 8 8 9 10 10 10 10 10 10 10 11 11 11 10 10 10 8 6 7 10 11 13 11 9 9 10 8 9 10 11 12 13 13 12 12 11 10 8 6 6 6 8 10 10 10 10 10 12 16 18 19 20 20 21 20 20 20 21 21 22 22 22 22 21 20 20 19 19 18 19 18 17
14 13 12 12 10 10 10 10 10 10 9 10 10 9 8 9 9 10 11 12 11 11 10 10 10 11 10 10 9 7 7 8 10 11 11 10 8 8 9 9 11 13 15 16 16 13 11 12 13 12 8 6 6 6 7 7 6 8 9 7 7 10 14 17 18 19 20 19 19 18 19 21 21 20 20 19 19 19 19 20 20 19 18 17 17
15 13 13 12 11 11 10 9 8 8 9 9 10 9 9 8 8 9 10 12 12 12 11 9 8 10 9 9 9 9 8 8 10 10 10 10 9 9 10 11 13 15 16 15 14 13 12 12 13 11 9 7 6 5 6 5 4 6 8 7 7 8 10 14 16 17 19 19 18 17 18 20 20 19 19 18 18 18 19 20 20 19 17 16 16
15 15 14 14 13 12 10 8 7 7 8 8 7 8 8 7 7 8 10 10 11 12 11 9 9 9 9 10 11 11 9 9 10 10 10 11 10 10 11 11 13 14 12 11 12 12 12 11 11 10 8 7 5 6 7 5 4 5 6 7 8 8 8 11 14 15 16 17 18 18 18 18 18 18 19 18 18 18 18 19 20 19 17 16 16
15 16 16 16 15 13 11 9 8 8 8 8 7 7 7 6 7 8 9 9 9 10 10 8 9 10 11 11 12 12 10 11 11 11 11 11 10 9 11 12 11 10 9 9 11 12 11 10 10 10 9 8 7 8 7 6 8 8 7 7 8 9 9 11 13 14 15 16 17 17 18 17 17 17 18 18 18 18 17 17 18 18 17 16 16
15 16 16 17 17 15 13 11 10 10 9 8 7 6 6 7 8 8 9 9 9 9 8 7 8 9 10 12 12 11 10 11 11 10 10 10 9 9 11 11 9 8 8 8 9 11 11 10 10 11 11 11 10 10 8 7 10 10 8 7 8 10 12 14 15 15 15 15 15 16 17 17 17 17 16 16 16 17 15 15 16 18 18 16 15
15 15 16 17 17 17 15 13 12 11 11 10 8 7 7 7 8 9 10 10 10 9 7 6 6 7 9 10 11 10 9 9 9 9 9 8 8 8 10 9 8 7 7 7 8 9 10 10 10 11 12 12 11 11 10 9 10 10 9 8 8 9 12 14 16 16 14 13 14 15 16 16 17 17 16 16 16 16 15 14 16 19 19 17 16
16 16 16 16 16 17 17 15 14 14 13 11 9 7 8 8 9 9 10 11 9 8 7 6 6 6 7 8 9 9 8 9 9 9 9 7 8 8 9 8 7 7 6 6 8 8 9 9 9 10 10 11 11 11 11 10 11 11 10 9 7 8 11 13 15 15 14 13 13 14 15 16 17 17 17 17 17 16 16 15 16 19 20 19 17
16 16 16 16 16 17 16 16 15 16 14 12 10 9 9 9 10 10 11 10 8 7 6 5 5 5 5 6 7 7 7 8 8 9 8 7 8 8 9 8 7 6 6 6 6 7 8 8 9 10 9 9 9 11 11 11 10 10 10 9 7 6 10 13 14 14 13 13 13 14 15 16 18 18 18 18 17 17 17 17 17 19 20 20 18
16 16 16 16 17 17 16 16 16 16 14 12 11 11 10 11 10 10 10 9 8 7 5 5 5 5 5 5 6 7 6 7 8 8 7 7 8 8 8 9 8 6 6 6 5 6 7 7 8 10 9 8 8 10 11 11 10 8 9 8 6 4 5 10 14 14 13 13 15 15 15 16 17 18 17 17 17 17 18 18 18 19 20 20 19
16 16 16 16 17 17 16 16 17 17 15 13 12 11 11 12 11 10 9 8 8 7 5 5 5 5 5 5 7 7 6 6 8 8 7 7 7 6 7 8 8 6 5 5 5 6 6 6 7 8 9 8 8 10 11 11 10 8 7 7 5 2 2 6 11 13 14 15 16 15 15 16 16 16 16 16 17 17 18 18 18 19 19 20 20
16 16 17 17 17 17 16 17 17 17 16 14 13 12 12 12 11 10 9 8 8 7 6 4 4 5 5 5 7 6 5 6 8 7 7 8 7 6 6 7 7 7 6 6 6 6 6 5 4 5 7 8 9 11 11 11 11 9 6 6 6 4 3 4 7 10 12 14 14 14 14 15 15 15 16 16 16 16 17 17 18 18 19 20 21
16 16 17 18 18 17 17 17 16 16 16 15 15 14 13 13 11 10 9 9 9 8 6 4 3 5 5 5 6 6 5 5 6 7 7 7 7 7 7 7 6 6 7 8 7 6 6 4 3 3 5 7 9 10 10 11 11 11 8 7 7 7 6 5 6 8 10 11 12 13 13 14 14 14 14 14 15 15 15 15 16 17 17 18 18
16 16 17 18 19 18 18 18 17 16 16 16 16 16 15 14 12 11 10 10 9 8 6 5 4 5 4 3 4 5 5 4 5 7 8 7 6 6 5 6 6 5 7 10 9 8 7 4 2 3 4 5 7 8 9 10 11 11 10 9 9 9 8 8 8 8 9 10 10 11 11 12 13 13 13 13 13 13 13 13 13 14 15 15 15
17 17 18 18 18 19 19 18 18 17 17 17 17 17 16 16 14 12 11 11 10 9 7 6 5 5 4 4 4 5 5 5 5 7 7 7 7 7 5 4 5 5 7 9 9 9 8 6 4 3 4 4 6 6 7 8 10 10 10 10 10 10 9 9 8 8 9 9 10 10 10 10 11 11 11 12 12 12 12 12 13 13 14 14 14
17 18 18 19 19 19 19 19 19 18 18 18 18 18 17 17 15 14 13 12 12 10 8 7 6 5 5 5 5 5 5 5 5 7 7 6 7 7 5 4 6 6 7 8 8 9 8 7 7 5 5 5 5 6 6 6 7 8 8 9 11 11 10 9 9 8 8 8 9 10 10 10 10 10 10 10 11 11 11 11 11 11 12 12 12
17 17 18 19 20 20 20 19 19 19 19 18 18 18 18 18 16 15 14 14 13 10 9 8 7 6 6 6 5 5 5 4 5 6 6 6 6 7 5 5 5 6 7 7 7 8 8 8 7 7 6 6 6 6 5 5 5 6 7 8 9 11 11 10 9 8 8 8 8 9 10 10 10 10 10 10 10 10 9 9 9 9 10 10 10
17 17 17 18 20 21 22 21 20 20 20 19 19 19 19 18 17 16 15 14 13 11 10 9 8 7 7 6 5 6 5 5 5 6 6 5 5 6 5 5 5 6 7 7 7 8 8 8 8 7 7 6 7 7 6 4 4 5 6 7 8 9 10 10 9 8 8 7 7 8 9 9 9 9 10 10 9 9 9 8 8 8 8 8 9
16 16 17 18 20 21 22 22 21 21 21 21 20 20 20 19 18 17 16 14 13 11 10 9 9 8 7 7 6 6 6 6 5 5 6 5 4 5 4 4 5 6 7 7 7 8 8 8 8 8 7 6 7 8 7 5 4 4 5 6 6 7 8 8 8 8 7 7 6 6 7 7 8 8 8 8 8 8 8 7 7 7 7 7 8
17 17 18 19 19 20 20 21 22 22 22 22 21 20 20 20 19 18 16 15 13 12 12 11 10 9 9 8 7 6 7 7 6 5 6 5 4 4 4 4 4 5 6 7 7 8 8 8 7 7 6 6 6 7 7 5 4 4 4 4 5 5 6 6 6 6 6 5 5 5 5 5 5 6 6 6 6 6 6 6 6 6 7 7 8
17 17 17 18 18 19 19 20 22 23 23 22 21 21 21 20 19 18 17 16 15 14 13 13 12 11 10 9 9 8 8 8 7 6 5 5 5 4 4 4 3 4 5 6 7 8 8 7 7 5 5 5 5 6 7 6 4 3 3 3 4 4 4 4 4 5 4 4 3 3 3 3 3 3 3 4 4 4 5 5 6 6 7 8 8
16 16 15 16 17 18 18 19 21 23 23 22 22 21 21 21 20 19 18 17 17 16 15 14 13 13 12 11 10 9 8 8 8 7 6 6 5 5 5 5 4 5 5 5 5 6 6 7 6 4 4 4 5 5 6 5 4 4 3 3 3 3 3 3 3 3 3 3 3 3 2 1 0 1 2 3 4 4 5 5 6 7 7 8 8
14 14 14 14 15 16 17 18 20 22 22 22 21 21 21 22 21 20 19 19 18 17 16 15 15 14 14 13 11 10 9 9 9 8 7 7 6 6 6 6 5 5 5 5 5 5 5 5 5 4 3 3 3 4 4 5 5 5 4 3 3 3 3 3 3 3 3 3 3 2 2 2 2 2 3 3 4 5 6 6 7 7 8 8 9
13 13 13 13 14 14 15 17 19 20 21 21 20 20 21 22 22 21 20 20 18 17 16 16 16 16 14 13 12 11 10 10 9 9 8 8 8 7 6 6 5 5 5 4 4 5 5 4 3 4 4 3 3 3 2 4 5 4 4 3 2 2 3 2 2 2 3 2 2 2 3 3 4 4 4 5 5 6 6 7 7 8 8 9 10
13 12 13 13 13 13 14 16 18 19 20 20 19 20 21 22 22 22 21 21 19 18 18 17 17 16 15 14 12 12 11 11 11 11 10 9 8 7 6 6 5 5 5 4 4 5 5 4 4 4 4 4 5 4 3 3 4 4 3 2 2 2 2 2 2 2 3 3 3 3 3 4 4 5 5 6 6 7 7 8 8 9 9 10 10
13 13 13 13 14 14 15 17 18 18 18 18 19 20 21 22 22 21 21 21 20 19 19 18 17 16 15 15 13 13 13 12 12 12 11 10 8 7 7 7 6 6 6 5 5 6 7 6 6 6 5 5 7 6 5 5 4 5 4 4 4 3 3 3 3 3 4 4 4 4 5 5 6 6 6 6 7 8 9 9 10 10 11 10 10
13 12 12 13 14 15 15 16 17 17 18 18 19 20 21 21 21 21 21 22 21 20 19 19 17 16 16 15 14 14 13 13 12 12 12 10 8 8 8 8 8 8 7 6 6 8 9 8 8 7 6 6 8 8 7 7 7 5 5 6 6 5 5 5 4 5 4 4 5 5 6 6 6 7 7 7 8 9 9 10 10 11 12 12 12
13 13 13 14 14 15 15 15 16 16 17 19 20 20 20 20 20 20 21 22 21 20 20 19 18 18 17 16 15 15 14 14 13 13 13 11 10 10 10 9 9 9 8 8 8 9 10 10 9 9 8 8 9 9 8 9 9 7 7 8 7 7 7 7 7 7 6 6 6 6 6 7 7 8 8 9 9 10 11 11 12 12 12 13 13
14 14 14 14 14 15 15 15 15 16 16 18 19 20 20 21 21 21 22 22 21 21 21 20 20 19 18 17 16 16 15 14 13 13 14 13 12 11 11 10 10 10 10 9 10 10 11 11 11 10 10 9 9 10 9 10 10 8 8 9 8 8 8 8 8 9 8 7 7 7 7 7 8 9 9 10 11 12 12 13 13 14 14 14 15
15 15 14 14 14 15 15 14 15 15 15 16 17 18 19 21 22 22 23 23 22 22 22 22 21 20 19 18 16 16 15 14 14 14 14 14 14 13 12 11 12 11 11 11 12 11 11 13 12 11 10 10 10 11 11 10 9 8 9 10 10 9 9 9 9 9 9 9 8 8 8 8 9 9 10 11 12 13 14 15 15 16 16 16 17
16 17 16 14 14 15 15 15 15 15 15 15 16 18 18 20 21 22 23 24 23 23 23 23 22 21 20 19 18 17 16 15 14 14 15 15 16 15 14 13 13 13 12 13 14 13 12 14 14 11 11 11 11 12 12 11 10 9 10 11 11 11 10 10 10 10 10 10 10 10 10 10 10 11 11 11 12 13 14 15 16 17 18 18 18
16 16 16 15 16 16 16 15 16 16 16 16 17 18 19 20 21 22 23 24 24 24 24 24 23 23 22 21 20 19 17 16 15 15 15 16 17 17 16 15 15 14 14 15 14 13 13 14 14 13 12 11 11 12 11 11 10 10 10 11 12 12 12 11 11 10 11 11 12 12 12 12 12 13 13 13 13 13 14 15 16 17 18 19 18
16 15 16 17 17 17 15 15 16 17 18 18 18 19 20 21 22 22 23 24 24 25 25 24 23 23 22 22 21 20 19 18 17 17 17 18 19 18 17 17 16 16 16 16 15 13 14 14 15 14 13 12 12 12 11 10 11 10 11 12 13 14 13 13 12 11 12 13 14 14 14 14 14 15 15 15 14 14 15 15 15 16 17 19 19
16 15 16 17 17 17 16 17 17 18 18 19 19 20 22 22 23 23 23 24 25 26 25 24 24 24 23 22 22 21 20 20 19 19 19 19 20 19 19 18 17 17 17 17 16 15 15 16 16 16 15 14 14 14 13 12 12 11 11 11 13 14 15 15 14 13 13 15 16 16 17 17 17 17 16 16 16 16 16 16 16 16 17 18 19
16 16 17 18 18 17 16 17 18 19 19 20 20 21 22 23 24 24 24 24 25 26 26 26 25 25 25 24 23 23 23 23 23 22 22 21 21 21 21 20 19 19 18 18 18 18 17 17 17 18 17 17 17 17 16 15 14 13 12 12 14 15 16 17 16 15 15 16 17 19 20 20 19 18 18 18 17 17 17 18 18 18 18 18 19
16 18 19 20 19 18 16 17 18 19 20 21 22 22 23 23 24 24 24 24 24 25 26 27 27 27 27 26 25 25 26 26 26 25 24 23 23 22 22 22 22 21 20 19 19 20 20 19 20 20 20 20 19 19 19 18 18 17 16 16 17 17 17 18 18 18 18 18 20 21 21 22 21 20 20 20 19 20 20 20 20 20 19 19 19
14 17 19 20 20 19 18 18 18 19 21 22 24 24 24 23 23 23 23 23 24 25 26 27 27 27 27 27 27 27 27 27 27 27 26 25 24 24 24 24 24 23 23 22 21 22 22 22 22 22 22 21 21 21 21 21 21 21 21 19 19 18 19 19 19 19 20 21 22 22 22 22 22 22 22 22 21 22 22 22 22 21 20 20 19
13 15 17 19 20 21 21 21 20 20 21 22 24 25 24 23 23 23 23 23 24 25 26 27 27 28 27 27 28 28 28 28 27 27 27 26 26 26 26 26 26 26 25 24 24 24 24 24 25 24 23 22 23 22 22 23 24 24 23 22 21 21 22 21 21 21 22 23 24 24 23 23 23 24 24 24 23 24 24 24 23 22 21 20 19
14 15 17 18 18 20 21 22 23 22 22 22 23 24 24 24 24 24 24 24 24 25 26 26 27 28 28 29 29 29 29 29 29 29 28 28 28 28 28 28 28 27 27 26 26 26 26 27 27 26 25 25 24 23 24 25 25 25 25 24 24 24 24 24 24 23 24 25 24 24 25 25 25 25 25 25 25 25 26 25 24 23 22 20 19
16 17 17 18 18 19 20 21 22 23 23 24 24 24 25 25 25 26 25 25 25 25 25 26 27 29 29 29 30 29 29 30 30 30 30 29 29 29 29 29 29 29 28 28 28 28 29 29 28 28 27 27 27 27 26 26 26 27 27 26 25 26 27 27 26 26 27 27 26 26 26 27 27 27 27 27 28 28 28 27 26 25 23 20 19
18 18 18 19 19 19 19 20 21 22 24 25 25 26 26 26 26 26 27 27 26 26 26 26 28 28 28 29 30 30 29 30 30 30 30 30 30 30 29 29 29 29 29 29 30 30 30 30 29 29 29 30 31 29 26 26 27 28 28 28 27 28 29 29 28 28 28 29 28 27 28 29 30 30 30 30 31 31 30 29 28 25 22 20 19
18 19 19 20 20 20 21 21 21 22 23 24 26 27 28 28 27 27 27 28 28 28 28 28 27 26 26 29 31 30 29 30 30 30 30 31 31 30 29 29 30 30 30 30 30 30 31 32 32 32 31 33 33 31 27 27 29 30 31 30 29 28 29 30 30 31 31 32 31 30 30 32 33 32 34 35 34 34 33 32 28 23 20 20 18
18 19 19 20 21 21 21 22 22 23 23 23 25 26 27 29 29 29 29 28 28 30 31 30 29 27 28 30 30 30 30 31 31 30 30 31 31 31 30 31 32 32 31 31 31 31 31 32 33 33 33 34 34 33 31 30 31 32 32 30 29 29 30 30 31 32 33 33 31 30 32 34 33 33 35 36 36 36 35 31 26 22 20 18 14
18 19 19 20 20 21 21 22 22 23 23 23 24 25 25 27 28 29 30 30 29 30 30 30 29 29 30 30 31 31 31 31 31 31 31 32 33 32 31 32 32 31 30 30 31 31 31 32 32 32 33 34 34 34 33 33 34 34 32 31 31 30 30 31 31 32 33 32 30 31 32 33 33 34 35 36 37 37 33 28 24 22 19 14 10
Wind_Direction
183 178 179 182 183 188 193 193 198 199 174 100 52 56 33 17 14 6 7 11 11 8 12 16 8 6 14 8 1 2 353 347 350 342 331 315 298 297 288 275 279 279 275 272 264 262 262 261 264 261 252 238 228 229 233 236 234 230 228 229 229 228 227 226 225 226 226 226 228 230 230 229 229 231 232 235 237 239 240 242 243 244 245 246 246
191 188 187 188 191 195 202 207 217 221 209 175 73 56 344 347 2 0 3 8 6 5 7 11 13 13 13 6 3 6 359 355 3 0 350 332 312 312 303 282 275 278 280 277 272 273 271 269 274 269 262 255 248 247 243 241 241 237 233 234 234 231 229 229 228 227 227 229 231 232 233 232 230 230 231 233 235 237 240 242 243 245 247 248 249
198 198 197 197 199 201 205 216 232 239 240 243 252 284 313 337 354 357 2 7 2 360 0 4 16 13 1 0 359 4 7 4 3 1 354 342 329 326 314 290 277 279 283 283 284 288 286 283 284 280 283 286 280 270 257 248 246 241 237 238 239 236 230 229 230 228 228 231 233 233 233 233 233 232 232 232 233 234 237 239 241 243 245 248 249
202 207 209 208 209 210 209 219 233 243 250 258 278 292 314 336 347 353 357 2 356 353 354 358 11 8 349 353 354 356 6 11 7 0 356 350 341 329 316 301 285 283 282 283 288 286 277 282 295 300 314 307 283 271 263 250 245 242 238 238 240 238 231 228 232 230 230 232 233 233 232 232 233 233 234 235 234 234 235 237 239 241 243 245 247
203 210 215 218 218 217 218 222 230 238 249 263 283 295 317 334 339 347 350 352 349 346 351 354 3 1 344 347 351 349 356 12 10 359 358 358 352 335 326 314 300 297 291 290 290 278 264 277 312 337 349 314 285 270 267 254 247 244 239 239 242 242 231 224 231 231 230 234 234 233 233 232 233 233 235 236 237 236 236 237 239 241 243 244 246
204 209 215 222 223 223 226 231 239 246 257 272 286 301 320 327 331 341 342 343 342 340 346 351 353 344 335 344 351 348 353 12 7 360 4 5 360 342 330 316 306 306 302 303 298 281 276 334 324 339 350 317 303 281 263 252 248 244 242 244 249 248 238 225 230 233 230 232 234 234 234 233 233 233 235 237 238 238 237 238 240 241 243 244 245
205 209 215 222 224 226 231 238 248 256 267 278 285 300 311 313 321 332 333 330 329 333 341 348 344 330 330 344 349 348 356 10 4 3 9 6 1 344 331 318 311 308 302 311 319 315 331 2 353 345 342 326 329 312 278 260 253 253 252 253 258 255 248 234 229 233 233 232 232 233 234 233 233 234 234 236 236 237 237 238 240 241 242 243 245
209 212 217 223 226 229 234 241 250 258 264 271 277 285 292 300 312 321 320 318 321 330 336 343 340 328 334 347 348 347 351 3 6 8 10 5 357 346 334 325 321 318 322 335 349 350 346 349 348 346 343 337 332 311 286 269 258 263 260 252 257 253 247 239 231 230 233 235 234 231 232 233 234 235 234 234 234 236 237 239 241 241 241 242 244
218 217 221 228 230 230 234 240 249 257 259 264 270 274 280 290 302 308 309 313 317 324 333 344 338 326 337 349 347 347 352 4 10 8 7 360 350 346 341 342 344 341 344 350 354 354 347 343 343 342 348 356 340 306 292 287 266 261 259 252 254 250 244 236 229 228 228 232 236 232 230 232 234 236 234 232 232 234 236 239 240 240 241 243 244
227 224 225 231 233 232 235 239 243 252 258 262 265 267 276 284 291 295 298 305 310 318 334 347 333 320 334 349 346 350 1 9 8 3 2 356 349 351 350 353 354 347 347 354 354 353 351 347 345 346 352 1 358 341 337 334 291 264 265 261 250 248 244 230 222 225 224 225 232 231 230 231 232 235 234 233 233 233 234 236 237 238 241 245 246
230 230 230 232 236 236 238 243 242 247 254 259 260 264 276 285 285 285 288 294 303 317 334 343 333 326 338 351 349 348 359 6 2 358 357 355 352 351 350 353 352 345 350 1 0 360 360 358 359 2 359 357 358 356 360 359 324 291 279 265 247 240 233 223 217 219 220 221 226 228 228 229 230 232 234 234 234 235 236 236 233 233 238 244 247
229 232 233 235 238 239 239 243 244 246 249 254 260 266 278 281 277 280 285 289 300 315 327 336 339 338 344 353 351 347 354 0 359 356 354 354 352 350 355 1 356 349 2 10 6 5 5 6 10 13 9 4 360 349 353 2 341 323 301 274 255 241 229 224 220 219 223 223 225 226 227 227 227 230 232 233 234 234 237 237 229 227 233 241 245
231 233 235 237 240 241 240 239 241 246 248 252 261 270 272 267 269 275 280 287 301 312 317 331 338 339 347 352 349 348 353 358 357 356 355 351 347 357 10 15 14 11 18 19 13 10 7 7 12 15 12 7 3 352 353 2 345 331 317 291 261 242 230 225 223 223 226 227 227 226 225 225 225 226 228 228 230 231 235 234 224 222 228 236 241
232 235 237 239 242 243 242 240 240 243 246 250 257 265 263 261 266 270 276 287 301 306 308 323 329 338 351 350 347 351 355 358 357 358 2 351 343 8 24 24 26 24 23 26 19 13 10 9 12 16 12 9 10 2 358 356 343 333 324 304 268 243 230 225 224 223 225 228 231 228 224 224 223 222 223 223 225 227 228 225 218 220 226 233 236
232 234 236 239 242 243 244 242 240 242 244 249 255 261 259 259 262 266 274 284 293 298 304 314 316 336 354 347 351 358 358 357 356 359 5 350 346 18 35 30 30 28 24 25 18 13 13 12 12 19 18 13 14 11 3 352 346 338 326 311 284 250 230 224 221 220 223 226 229 231 226 222 220 220 220 221 222 223 223 220 218 220 224 229 233
236 237 237 239 242 243 243 241 239 240 243 247 252 258 258 257 258 264 272 278 281 284 293 301 306 332 345 341 356 5 359 354 356 5 1 344 357 29 42 37 33 33 33 32 21 16 17 13 11 20 25 20 19 20 12 0 355 344 329 321 304 261 231 221 216 216 221 223 225 230 228 223 219 219 220 222 223 222 223 222 222 223 225 229 233
241 241 240 240 242 243 242 239 237 239 241 241 246 252 257 259 258 263 270 274 274 273 278 292 304 323 328 336 359 5 0 353 358 12 2 348 11 34 39 34 29 29 38 40 32 25 22 17 14 20 23 22 26 28 21 11 8 353 336 332 321 286 235 219 213 212 216 219 221 223 224 223 219 217 217 222 224 223 225 225 224 225 226 230 234
241 242 242 240 241 242 242 239 236 237 238 236 239 246 254 257 257 261 263 263 267 269 268 280 300 310 314 340 359 359 360 354 356 9 8 2 18 33 31 26 21 19 24 23 20 20 19 19 19 21 19 17 28 34 26 17 18 13 353 347 347 351 204 206 208 211 213 215 217 217 218 219 216 214 213 219 224 223 222 224 224 225 227 230 234
237 240 242 240 239 240 241 240 237 235 235 234 235 240 247 252 254 256 254 251 258 262 259 270 297 300 309 343 352 352 360 354 350 2 13 10 12 22 23 19 14 12 10 2 2 15 19 17 21 24 18 19 31 37 29 20 24 29 19 10 22 49 99 156 182 197 202 206 209 209 209 209 209 210 211 215 221 220 218 220 222 225 227 230 233
236 237 239 240 239 238 239 241 239 237 236 234 233 234 240 246 246 247 247 247 252 256 258 273 290 288 305 336 338 341 351 349 343 358 14 12 11 16 15 21 18 10 14 11 6 13 15 8 12 26 20 22 32 36 30 25 29 36 35 31 41 59 81 111 140 160 174 187 193 194 195 197 199 201 205 209 214 217 219 221 224 226 229 231 233
239 237 235 236 238 237 237 239 240 239 236 234 232 231 235 241 240 238 240 244 249 251 257 270 279 279 290 310 321 329 334 340 346 357 6 7 18 27 26 35 33 24 25 22 20 22 20 18 24 31 29 26 32 35 30 28 32 37 42 43 47 59 75 94 115 135 151 166 178 185 189 191 192 193 196 199 202 207 211 215 218 221 224 227 229
240 238 235 234 236 237 237 237 237 238 235 233 231 228 230 236 236 234 234 239 245 246 250 261 273 277 282 295 309 319 329 345 353 354 355 356 11 28 47 56 44 40 34 27 32 34 32 43 51 44 43 36 34 35 32 33 33 35 43 52 56 58 66 81 98 116 134 148 160 170 177 181 184 184 186 189 191 194 198 202 208 212 216 220 222
243 241 239 237 237 237 237 236 235 235 234 232 229 226 227 232 234 233 233 237 242 245 248 257 270 276 277 284 293 310 329 343 345 340 339 347 3 13 30 41 32 33 29 24 34 39 36 42 46 42 40 35 30 28 26 32 36 36 41 53 63 64 65 72 84 98 116 132 144 153 160 166 171 174 177 183 187 190 195 200 205 209 213 216 218
249 246 243 240 238 237 237 234 232 232 232 231 228 224 225 229 231 231 232 235 240 244 247 253 267 274 273 277 287 303 316 325 328 321 319 336 355 1 8 20 24 26 20 15 22 29 32 35 34 32 34 31 23 17 13 21 31 38 43 50 60 67 68 70 78 89 103 118 130 139 145 151 158 163 167 173 178 183 187 192 197 202 205 208 213
253 253 248 244 241 239 237 234 230 229 229 229 226 223 224 228 229 229 230 232 238 244 247 253 261 264 268 279 285 290 296 306 311 302 301 320 341 349 356 7 22 24 15 10 13 19 26 29 25 21 24 30 25 15 7 10 20 26 38 47 53 63 69 70 72 78 88 101 114 125 133 140 146 151 156 161 166 169 174 180 187 195 202 209 220
255 254 250 245 244 242 239 233 229 227 226 226 224 222 222 225 226 226 227 229 233 239 244 247 252 258 267 275 274 276 286 290 287 284 291 304 323 337 345 355 12 17 7 5 8 8 15 24 23 18 17 27 31 26 18 11 15 15 24 38 46 54 63 67 70 72 77 86 97 108 119 130 137 143 148 152 157 161 168 178 189 200 211 221 231
250 248 245 243 243 243 239 233 228 226 225 224 223 221 221 223 224 225 225 225 227 233 238 241 246 255 263 270 275 279 280 278 275 276 286 294 306 325 330 337 359 12 8 3 357 355 3 13 19 20 19 22 32 35 30 22 17 10 10 26 39 46 51 55 61 64 67 73 83 97 110 122 134 143 150 157 164 171 181 193 206 218 229 238 247
247 244 243 242 241 240 238 234 229 226 223 222 221 220 221 222 223 223 223 224 224 227 235 241 246 254 260 266 273 277 272 271 273 275 280 286 294 306 308 308 335 6 16 8 348 344 353 360 10 27 30 28 31 34 32 28 26 16 3 11 23 31 41 45 52 59 58 56 57 68 92 117 139 157 171 186 197 206 217 223 230 239 246 252 258
245 242 240 239 237 236 234 231 227 225 222 221 220 219 220 221 221 221 223 226 227 226 231 239 245 250 257 263 265 267 267 266 270 272 271 273 277 284 288 294 319 352 14 13 345 337 349 355 6 26 34 33 30 25 22 19 22 25 16 14 14 8 10 19 30 42 44 42 37 25 14 9 229 224 233 240 244 247 248 249 250 253 257 259 260
240 237 236 236 234 231 230 226 224 223 222 221 219 219 221 222 221 221 222 227 230 230 232 235 239 244 250 259 264 267 267 262 263 266 265 266 265 266 276 291 314 336 358 2 336 327 340 351 357 355 351 6 19 17 10 2 7 15 11 12 14 356 345 350 358 6 11 13 11 358 329 303 288 273 265 258 258 257 255 256 258 258 260 260 260
236 232 231 231 230 229 226 224 222 222 222 221 219 220 222 222 222 222 223 227 230 232 234 234 236 240 245 252 260 265 263 255 252 256 259 261 260 258 271 290 304 317 333 343 327 315 322 333 336 329 325 325 330 336 343 346 348 349 357 6 358 344 340 337 338 335 335 336 332 326 310 296 282 272 270 267 265 265 262 262 260 259 259 258 259
235 231 228 225 223 222 222 222 220 219 220 220 219 221 222 222 220 220 223 227 229 229 232 234 236 239 243 247 252 257 257 253 250 251 252 255 257 258 266 276 284 290 299 306 299 295 302 307 301 302 309 305 295 289 292 314 317 306 313 331 320 319 323 311 309 311 314 318 315 309 301 295 287 275 269 268 267 268 269 270 269 269 268 266 266
233 229 228 226 222 217 216 218 220 221 220 220 221 222 223 221 217 218 221 225 227 228 230 233 234 236 239 242 245 250 251 248 247 248 249 253 256 257 256 257 263 269 275 280 280 280 285 289 290 291 298 295 289 287 287 291 292 283 282 284 277 278 289 289 291 293 301 311 311 305 298 292 289 283 277 273 272 270 270 271 273 274 275 275 274
234 229 228 230 229 222 216 215 218 222 223 223 224 225 225 222 217 215 218 222 226 227 229 230 232 234 236 239 242 245 245 243 244 248 251 252 252 250 249 250 254 257 261 270 275 274 275 279 286 290 293 294 293 294 293 288 282 274 274 271 262 261 270 274 279 285 291 302 305 305 300 294 289 283 279 279 279 277 276 275 274 275 277 277 277
234 230 227 228 231 228 221 217 217 219 223 225 225 225 225 224 220 216 217 220 222 225 228 228 228 231 234 235 238 240 241 240 241 246 251 251 245 242 243 247 252 254 257 266 273 272 272 275 280 285 289 296 298 297 294 287 281 273 272 271 263 260 268 273 278 282 285 293 299 301 300 297 293 286 282 280 279 278 277 277 276 275 274 275 275
236 233 231 229 232 233 227 223 222 221 224 227 228 226 225 223 221 218 216 218 219 221 224 225 227 229 231 231 233 235 237 238 239 243 248 250 247 243 244 247 251 252 255 264 268 268 270 272 274 280 287 291 292 290 287 285 284 276 271 274 271 267 272 276 278 279 280 285 291 295 296 296 295 292 289 287 283 281 278 277 276 274 272 272 272
239 238 235 232 234 236 232 228 227 226 226 228 230 229 227 225 223 220 217 216 217 219 220 221 224 228 229 229 230 233 234 235 238 242 246 250 251 249 249 250 250 249 252 260 262 262 266 270 272 277 284 285 283 284 284 284 284 278 273 275 274 269 271 274 274 273 273 276 282 286 288 290 291 292 292 290 288 286 283 280 278 275 273 272 272
242 240 237 234 233 234 232 228 227 228 226 226 228 228 227 226 226 225 221 218 217 218 217 218 220 225 228 228 229 232 232 232 235 239 243 248 251 249 248 249 249 249 251 256 257 259 264 271 275 278 280 281 283 285 287 285 282 280 277 273 268 265 266 268 268 265 265 269 273 275 277 282 286 288 289 289 289 287 285 282 280 278 276 275 274
242 237 235 236 235 232 231 229 228 228 226 225 227 227 225 224 225 227 227 225 223 220 218 217 218 221 224 225 226 228 229 229 231 234 239 245 248 249 250 251 251 251 251 252 253 256 261 267 273 276 277 277 279 283 286 284 282 284 280 269 262 261 263 263 262 261 264 268 269 271 275 280 284 287 288 289 290 289 287 284 281 279 278 277 276
242 240 238 240 240 238 236 236 234 231 228 227 227 227 225 225 225 226 227 227 227 226 223 221 221 222 224 224 224 224 226 228 230 233 237 242 246 248 250 251 253 253 253 253 254 258 261 264 269 272 274 275 277 279 282 282 281 281 278 270 262 260 261 261 258 259 264 268 270 272 275 278 282 285 287 288 289 290 290 288 284 280 276 275 273
242 243 244 244 244 243 241 239 238 235 232 231 229 228 228 229 228 227 227 226 228 229 228 225 224 226 227 228 227 227 228 230 232 233 236 240 245 249 251 252 253 253 254 256 256 256 258 262 265 267 270 273 275 275 276 277 275 273 272 269 265 262 262 261 260 261 266 270 272 274 275 277 279 280 282 284 286 288 289 289 288 284 279 275 273
241 237 241 245 246 246 244 240 239 237 235 233 232 231 232 232 231 230 229 228 228 229 229 227 227 228 229 230 230 229 230 232 234 235 236 238 242 247 252 254 255 255 256 258 259 259 259 260 263 266 268 269 270 271 272 271 270 269 267 264 263 264 265 264 262 262 263 266 270 273 276 277 277 278 279 281 283 284 286 287 288 287 284 280 277
241 237 238 242 244 245 244 243 241 238 235 234 235 236 235 234 233 232 233 232 231 230 229 229 230 230 230 231 231 231 231 232 234 235 236 238 241 246 250 254 258 259 259 259 262 264 264 264 264 265 266 266 267 268 270 271 272 272 269 264 265 268 270 269 266 263 263 266 269 272 274 276 277 278 278 280 282 283 284 286 287 289 289 286 282
242 239 239 241 243 244 244 244 243 240 238 237 239 241 240 237 236 235 236 236 234 233 232 232 231 231 232 233 235 235 235 235 236 237 238 239 242 245 249 252 256 259 260 261 261 262 264 265 265 264 265 266 266 267 269 270 270 270 269 269 270 271 270 269 268 267 268 269 271 273 275 276 277 278 279 280 281 281 282 283 286 289 290 287 285
244 242 243 244 245 245 244 243 243 242 241 240 241 245 246 243 239 238 238 238 239 239 238 237 234 232 233 235 237 239 240 241 241 241 241 242 244 247 250 252 254 257 259 262 263 263 264 265 265 265 265 264 264 265 266 266 265 267 270 272 272 271 268 267 267 268 267 268 272 276 279 280 281 281 280 279 279 279 280 282 284 286 287 287 288
246 245 245 245 246 245 245 244 243 243 243 243 243 245 248 246 243 240 239 239 240 242 243 242 239 236 235 236 238 241 243 245 245 245 245 245 247 249 251 253 255 257 259 262 263 265 266 266 266 267 266 264 265 265 265 266 267 269 269 270 270 270 270 269 269 271 271 271 274 278 280 281 282 282 281 279 277 277 278 280 282 282 282 284 284
247 247 247 247 248 247 247 247 246 245 244 243 242 243 245 245 244 243 243 242 242 242 242 242 241 239 237 238 240 243 246 247 248 249 249 250 251 251 252 254 256 258 259 260 261 264 265 266 267 268 268 267 266 264 264 267 270 272 272 271 270 269 270 272 273 273 273 275 277 277 278 280 282 282 282 279 277 275 276 278 278 276 277 279 278
251 251 251 251 251 251 250 250 249 248 246 244 243 242 243 244 244 244 245 246 245 244 242 242 242 242 243 244 244 245 247 249 250 251 252 254 254 253 253 255 257 258 259 260 261 263 265 266 267 268 268 266 265 263 264 268 273 275 275 273 271 268 268 269 270 271 272 275 276 276 277 279 281 282 281 279 277 275 274 274 274 274 276 277 275
256 256 256 255 255 254 253 252 251 250 248 246 244 243 243 244 244 244 245 246 245 244 244 244 244 245 245 246 247 248 249 250 251 252 254 255 254 253 254 256 258 259 260 260 261 261 263 265 267 268 268 267 268 269 270 273 275 274 272 273 275 274 270 268 268 269 270 272 275 277 278 279 280 281 281 279 276 274 272 272 273 275 276 272 265
259 259 258 257 256 256 255 255 254 253 252 250 248 247 245 244 243 243 244 244 245 245 245 246 246 245 244 247 250 251 252 252 252 252 254 255 254 254 256 257 258 259 259 259 259 259 261 263 265 267 269 270 273 274 274 273 271 269 268 270 273 274 274 272 271 271 271 272 275 276 275 276 279 282 281 277 274 272 272 270 270 271 268 261 254
261 260 259 258 258 257 255 254 254 254 253 252 251 251 249 248 246 244 243 243 244 244 246 246 246 246 246 248 250 251 251 253 253 252 253 253 254 255 257 257 258 258 258 258 259 259 261 262 263 265 267 270 272 274 274 274 272 271 273 275 274 273 273 273 272 271 271 272 274 274 274 279 282 280 278 277 275 273 269 263 261 258 252 248 260
Height
3225 3225 3225 3226 3226 3227 3227 3228 3228 3228 3228 3228 3228 3228 3228 3228 3228 3228 3227 3226 3226 3225 3225 3224 3223 3222 3221 3219 3218 3218 3217 3216 3215 3214 3213 3212 3210 3210 3210 3209 3208 3207 3206 3205 3204 3203 3202 3202 3202 3202 3201 3198 3198 3200 3200 3201 3202 3203 3204 3205 3205 3206 3207 3208 3208 3209 3210 3211 3212 3213 3214 3215 3216 3218 3219 3220 3220 3221 3222 3223 3225 3225 3226 3227 3228
3225 3225 3225 3225 3226 3226 3227 3228 3228 3228 3228 3227 3228 3228 3228 3228 3227 3227 3227 3226 3225 3224 3224 3223 3223 3222 3220 3219 3218 3218 3217 3216 3215 3214 3213 3212 3210 3209 3209 3208 3207 3206 3205 3204 3202 3203 3202 3201 3200 3200 3199 3196 3195 3198 3199 3199 3201 3202 3202 3203 3203 3203 3205 3206 3205 3206 3208 3209 3211 3212 3213 3214 3215 3216 3217 3218 3219 3220 3221 3221 3222 3223 3224 3225 3226
3224 3225 3225 3225 3225 3226 3227 3227 3227 3227 3227 3227 3228 3228 3228 3227 3227 3226 3226 3225 3224 3224 3224 3224 3223 3222 3220 3219 3218 3217 3217 3216 3215 3214 3213 3212 3210 3209 3208 3207 3206 3204 3203 3202 3200 3201 3203 3201 3199 3198 3196 3193 3193 3196 3197 3198 3199 3200 3201 3201 3201 3201 3202 3204 3204 3204 3205 3207 3209 3210 3211 3212 3214 3215 3216 3216 3217 3218 3219 3220 3220 3221 3222 3223 3224
3224 3224 3225 3225 3225 3225 3226 3227 3227 3227 3227 3227 3227 3228 3227 3226 3226 3225 3225 3225 3224 3223 3223 3223 3223 3221 3220 3219 3218 3217 3217 3216 3215 3214 3212 3211 3209 3208 3206 3205 3204 3203 3202 3201 3199 3200 3202 3200 3198 3196 3193 3191 3192 3193 3195 3196 3197 3198 3198 3198 3199 3199 3199 3201 3202 3202 3204 3205 3207 3208 3210 3211 3212 3213 3214 3215 3216 3217 3217 3218 3219 3220 3220 3221 3222
3223 3224 3224 3224 3225 3225 3226 3226 3227 3227 3227 3227 3227 3226 3226 3225 3225 3224 3225 3225 3224 3224 3223 3223 3222 3221 3220 3219 3218 3217 3216 3215 3214 3213 3212 3210 3208 3206 3205 3204 3202 3202 3202 3201 3200 3200 3200 3198 3195 3194 3192 3192 3192 3192 3193 3194 3195 3195 3195 3195 3196 3197 3196 3198 3200 3201 3202 3204 3205 3206 3208 3209 3210 3211 3212 3213 3214 3215 3216 3217 3217 3218 3219 3220 3221
3222 3223 3223 3224 3224 3225 3225 3226 3226 3226 3226 3226 3225 3225 3224 3224 3224 3224 3224 3224 3224 3224 3224 3223 3222 3221 3220 3219 3217 3216 3216 3214 3213 3213 3211 3209 3207 3205 3203 3203 3201 3200 3200 3200 3199 3198 3196 3195 3194 3193 3193 3193 3192 3191 3192 3192 3193 3193 3193 3194 3196 3196 3195 3196 3198 3199 3200 3201 3203 3205 3206 3207 3208 3209 3210 3211 3212 3213 3214 3215 3216 3217 3218 3219 3219
3221 3222 3222 3223 3224 3224 3224 3224 3224 3225 3225 3225 3225 3224 3223 3223 3223 3224 3224 3224 3224 3224 3223 3223 3221 3220 3219 3219 3217 3216 3215 3214 3213 3212 3210 3208 3206 3204 3203 3202 3201 3200 3199 3199 3196 3193 3191 3191 3192 3192 3191 3191 3191 3190 3190 3191 3192 3192 3193 3193 3194 3195 3194 3195 3196 3197 3199 3200 3201 3202 3204 3205 3206 3207 3208 3209 3211 3212 3213 3214 3215 3216 3217 3217 3218
3220 3221 3221 3222 3222 3223 3223 3223 3223 3224 3224 3224 3224 3224 3224 3223 3223 3223 3223 3224 3224 3223 3223 3222 3221 3220 3219 3219 3217 3216 3215 3214 3213 3211 3209 3208 3206 3205 3203 3202 3201 3199 3197 3195 3192 3189 3188 3188 3189 3190 3190 3190 3189 3189 3190 3191 3191 3192 3192 3192 3192 3192 3192 3194 3195 3195 3197 3199 3199 3200 3202 3203 3204 3205 3207 3208 3209 3210 3211 3213 3214 3214 3215 3216 3217
3219 3219 3220 3221 3221 3222 3222 3222 3223 3223 3224 3224 3224 3224 3224 3223 3223 3223 3222 3223 3223 3223 3223 3222 3221 3220 3219 3219 3217 3216 3215 3213 3212 3210 3209 3208 3206 3205 3203 3201 3199 3196 3193 3191 3190 3189 3189 3189 3188 3189 3189 3189 3189 3188 3189 3190 3190 3190 3190 3190 3190 3190 3189 3191 3192 3193 3195 3197 3198 3199 3200 3201 3202 3204 3205 3207 3208 3209 3210 3211 3212 3213 3214 3215 3216
3218 3218 3219 3219 3220 3221 3221 3222 3222 3223 3223 3223 3223 3223 3223 3223 3223 3222 3222 3222 3222 3222 3222 3222 3221 3220 3219 3218 3217 3215 3214 3212 3212 3210 3209 3207 3206 3204 3201 3199 3197 3195 3193 3192 3191 3191 3190 3189 3189 3188 3187 3187 3187 3187 3187 3189 3189 3189 3189 3189 3188 3188 3187 3188 3190 3192 3193 3195 3196 3197 3198 3199 3201 3202 3204 3205 3206 3207 3208 3209 3210 3211 3212 3213 3214
3217 3217 3218 3218 3219 3220 3220 3221 3222 3222 3222 3223 3223 3223 3222 3222 3222 3222 3222 3222 3222 3221 3221 3221 3220 3219 3218 3217 3215 3214 3213 3212 3211 3210 3208 3207 3205 3202 3200 3198 3197 3195 3195 3194 3193 3192 3191 3191 3190 3189 3189 3188 3187 3186 3186 3187 3188 3188 3188 3187 3186 3186 3186 3187 3189 3191 3192 3193 3194 3195 3196 3197 3199 3200 3202 3203 3204 3205 3207 3208 3209 3210 3211 3212 3213
3215 3216 3217 3217 3218 3219 3220 3220 3221 3221 3222 3222 3222 3222 3222 3221 3221 3222 3222 3222 3221 3221 3220 3220 3219 3217 3216 3215 3214 3213 3212 3211 3210 3209 3208 3206 3204 3203 3201 3199 3198 3196 3195 3194 3194 3193 3192 3192 3191 3191 3190 3189 3188 3186 3185 3186 3186 3186 3186 3186 3185 3185 3186 3187 3188 3189 3191 3192 3192 3193 3194 3196 3197 3198 3200 3201 3202 3204 3205 3206 3207 3208 3210 3210 3211
3214 3215 3215 3216 3216 3217 3218 3219 3220 3220 3221 3221 3221 3221 3221 3221 3221 3221 3221 3221 3221 3220 3220 3220 3219 3217 3216 3214 3213 3212 3212 3211 3210 3209 3208 3206 3205 3203 3202 3200 3198 3197 3196 3195 3194 3193 3192 3192 3191 3190 3190 3189 3188 3186 3185 3185 3185 3185 3185 3184 3184 3185 3186 3187 3187 3188 3189 3190 3191 3192 3193 3194 3195 3196 3198 3199 3200 3202 3204 3205 3205 3207 3208 3208 3209
3213 3214 3214 3215 3215 3216 3217 3218 3219 3219 3220 3220 3220 3220 3220 3220 3220 3220 3220 3220 3220 3220 3220 3219 3219 3217 3216 3214 3213 3212 3212 3211 3210 3209 3208 3207 3205 3204 3202 3201 3200 3198 3197 3196 3195 3194 3193 3192 3191 3190 3189 3189 3188 3186 3186 3185 3184 3183 3183 3184 3184 3184 3185 3185 3186 3187 3188 3189 3189 3190 3191 3192 3193 3195 3196 3197 3199 3200 3202 3203 3203 3205 3206 3207 3207
3211 3212 3213 3213 3214 3215 3215 3216 3217 3218 3218 3219 3219 3219 3219 3219 3219 3220 3220 3219 3219 3219 3219 3219 3218 3217 3216 3215 3214 3213 3212 3211 3211 3210 3208 3207 3206 3205 3203 3202 3201 3200 3198 3197 3196 3195 3194 3193 3192 3190 3189 3189 3188 3187 3186 3185 3184 3183 3183 3183 3183 3183 3184 3184 3184 3185 3186 3187 3188 3188 3189 3190 3191 3193 3194 3196 3197 3198 3199 3200 3201 3203 3204 3205 3205
3210 3211 3211 3212 3213 3213 3214 3215 3216 3216 3217 3218 3218 3218 3218 3219 3219 3219 3219 3219 3219 3219 3219 3218 3218 3217 3216 3215 3214 3213 3212 3211 3211 3210 3208 3207 3206 3205 3204 3203 3202 3201 3200 3198 3197 3196 3195 3193 3192 3191 3190 3190 3189 3188 3187 3186 3185 3184 3183 3183 3183 3182 3182 3182 3182 3183 3184 3185 3186 3187 3187 3188 3190 3191 3192 3194 3195 3196 3197 3198 3200 3201 3202 3203 3204
3209 3209 3210 3211 3211 3212 3213 3214 3214 3215 3215 3216 3217 3217 3217 3217 3218 3218 3218 3218 3218 3218 3218 3218 3217 3217 3216 3215 3214 3213 3212 3211 3211 3210 3209 3208 3206 3205 3204 3203 3202 3202 3201 3199 3198 3197 3195 3194 3193 3192 3191 3190 3189 3188 3188 3187 3186 3185 3184 3184 3183 3181 3180 3180 3181 3182 3182 3183 3185 3186 3186 3187 3188 3189 3191 3192 3193 3194 3195 3197 3198 3200 3201 3202 3203
3207 3208 3208 3209 3210 3211 3211 3212 3213 3213 3214 3215 3215 3216 3216 3216 3217 3217 3217 3217 3217 3217 3217 3217 3217 3217 3216 3215 3214 3213 3212 3211 3211 3210 3209 3208 3207 3206 3205 3204 3203 3202 3202 3200 3199 3198 3196 3195 3194 3193 3192 3191 3190 3189 3188 3188 3187 3186 3185 3185 3184 3182 3180 3179 3180 3181 3182 3183 3184 3185 3185 3186 3187 3189 3189 3190 3192 3193 3194 3195 3197 3198 3199 3200 3201
3206 3206 3207 3208 3208 3209 3210 3211 3211 3212 3212 3213 3214 3214 3215 3215 3215 3216 3216 3216 3216 3216 3216 3216 3216 3216 3215 3214 3213 3213 3212 3211 3210 3210 3209 3208 3207 3206 3205 3204 3203 3203 3202 3201 3200 3199 3198 3196 3195 3194 3193 3192 3191 3190 3189 3189 3188 3187 3186 3186 3184 3182 3180 3179 3179 3180 3181 3182 3183 3184 3185 3186 3187 3188 3188 3189 3190 3192 3192 3194 3195 3196 3197 3198 3199
3204 3205 3205 3206 3207 3208 3208 3209 3210 3211 3211 3212 3212 3213 3213 3214 3214 3214 3214 3215 3215 3215 3215 3215 3215 3215 3214 3214 3213 3212 3211 3211 3210 3210 3209 3208 3207 3206 3205 3205 3204 3203 3202 3201 3201 3200 3199 3197 3196 3195 3194 3192 3191 3191 3191 3191 3189 3188 3187 3187 3185 3183 3181 3180 3180 3180 3180 3181 3182 3183 3184 3185 3186 3186 3187 3188 3190 3191 3192 3193 3194 3195 3196 3197 3198
3202 3203 3204 3204 3205 3206 3207 3207 3208 3209 3209 3210 3211 3211 3212 3212 3213 3213 3213 3213 3214 3214 3214 3214 3214 3214 3214 3213 3213 3212 3211 3211 3210 3210 3209 3208 3208 3207 3206 3205 3205 3204 3203 3202 3201 3200 3199 3198 3197 3196 3195 3194 3193 3192 3193 3192 3191 3189 3189 3188 3186 3184 3183 3181 3181 3180 3181 3181 3182 3183 3184 3184 3185 3186 3186 3187 3189 3190 3191 3192 3193 3194 3195 3196 3197
3201 3201 3202 3202 3203 3204 3204 3205 3206 3207 3208 3208 3209 3210 3211 3211 3211 3212 3212 3212 3213 3213 3213 3213 3213 3213 3213 3213 3212 3212 3211 3211 3210 3210 3209 3208 3208 3207 3207 3206 3205 3204 3203 3202 3202 3201 3200 3199 3198 3197 3196 3195 3195 3194 3194 3193 3192 3191 3190 3189 3187 3186 3184 3183 3182 3182 3182 3182 3182 3183 3184 3184 3185 3185 3186 3187 3188 3189 3190 3191 3192 3193 3194 3195 3196
3199 3199 3200 3200 3201 3202 3202 3203 3204 3205 3206 3207 3208 3208 3209 3210 3210 3211 3211 3211 3212 3212 3212 3212 3212 3212 3212 3212 3212 3211 3211 3210 3210 3210 3209 3208 3207 3207 3207 3206 3205 3204 3203 3203 3202 3201 3200 3199 3198 3197 3196 3196 3195 3195 3194 3193 3193 3193 3192 3190 3189 3187 3186 3185 3184 3184 3183 3183 3183 3183 3184 3184 3185 3186 3187 3187 3188 3189 3190 3190 3191 3192 3193 3194 3195
3196 3197 3198 3198 3199 3200 3200 3202 3202 3203 3204 3205 3206 3207 3207 3208 3209 3209 3210 3210 3210 3211 3211 3211 3212 3212 3212 3211 3211 3211 3210 3210 3210 3210 3209 3208 3207 3207 3206 3205 3204 3204 3203 3202 3202 3201 3200 3199 3199 3198 3197 3196 3196 3195 3194 3194 3193 3193 3193 3191 3190 3189 3188 3187 3187 3186 3186 3185 3185 3185 3185 3185 3186 3186 3187 3188 3188 3189 3190 3190 3191 3192 3193 3194 3195
3194 3195 3195 3196 3197 3197 3198 3200 3201 3201 3202 3203 3204 3205 3206 3206 3207 3208 3209 3209 3210 3210 3210 3211 3211 3211 3211 3211 3211 3211 3210 3210 3209 3209 3209 3208 3207 3207 3206 3205 3205 3204 3203 3202 3201 3201 3200 3199 3198 3198 3197 3197 3196 3196 3195 3194 3194 3194 3193 3192 3191 3190 3190 3189 3188 3188 3188 3187 3187 3186 3186 3186 3186 3187 3187 3188 3188 3189 3190 3190 3191 3192 3193 3194 3194
3193 3193 3193 3193 3194 3195 3196 3197 3198 3199 3200 3201 3202 3203 3204 3205 3206 3207 3208 3208 3209 3209 3209 3210 3210 3210 3210 3210 3210 3210 3210 3209 3209 3209 3208 3207 3207 3206 3206 3205 3204 3203 3203 3202 3201 3200 3200 3199 3198 3198 3197 3197 3196 3196 3195 3195 3194 3194 3194 3193 3192 3191 3191 3190 3190 3190 3189 3189 3189 3188 3188 3188 3188 3188 3188 3188 3189 3189 3190 3191 3191 3192 3193 3193 3194
3191 3191 3191 3191 3192 3193 3194 3195 3196 3197 3198 3199 3200 3202 3202 3203 3204 3205 3206 3207 3207 3208 3208 3209 3209 3209 3209 3209 3209 3209 3209 3209 3208 3208 3208 3207 3207 3206 3206 3205 3204 3203 3203 3202 3201 3200 3200 3199 3199 3198 3198 3197 3197 3196 3195 3195 3195 3195 3194 3193 3193 3192 3192 3191 3191 3190 3190 3190 3190 3190 3189 3189 3189 3189 3189 3189 3190 3190 3190 3191 3191 3192 3192 3192 3193
3189 3189 3190 3190 3191 3191 3192 3193 3194 3195 3196 3197 3198 3199 3200 3201 3202 3203 3204 3205 3206 3207 3207 3208 3208 3208 3208 3208 3208 3208 3208 3208 3208 3208 3207 3207 3206 3206 3206 3205 3204 3203 3203 3203 3202 3201 3200 3199 3199 3198 3198 3198 3197 3196 3196 3195 3195 3195 3194 3194 3193 3192 3192 3192 3191 3191 3191 3191 3191 3191 3190 3190 3190 3190 3190 3190 3191 3191 3191 3191 3191 3191 3192 3192 3192
3188 3188 3188 3188 3189 3190 3190 3191 3193 3194 3194 3195 3196 3197 3198 3199 3200 3201 3203 3203 3204 3205 3206 3206 3207 3207 3207 3207 3207 3207 3207 3207 3207 3207 3206 3206 3206 3206 3205 3205 3204 3203 3203 3203 3202 3201 3200 3200 3199 3198 3198 3198 3197 3196 3196 3195 3195 3194 3194 3193 3193 3193 3192 3192 3192 3192 3191 3191 3191 3191 3191 3191 3191 3191 3191 3191 3191 3191 3191 3191 3191 3191 3191 3191 3191
3186 3186 3186 3187 3187 3188 3189 3190 3191 3192 3193 3194 3195 3195 3196 3197 3198 3199 3201 3201 3202 3203 3204 3205 3205 3205 3205 3205 3205 3206 3206 3206 3206 3205 3205 3205 3205 3205 3205 3204 3204 3203 3203 3203 3202 3201 3201 3200 3199 3198 3198 3197 3197 3196 3196 3196 3195 3194 3194 3193 3193 3193 3193 3192 3192 3192 3192 3191 3191 3191 3191 3191 3191 3190 3190 3190 3190 3190 3190 3190 3190 3190 3190 3190 3190
3185 3185 3185 3185 3186 3187 3187 3188 3189 3190 3191 3192 3193 3194 3194 3195 3196 3198 3198 3199 3200 3201 3202 3203 3203 3204 3204 3204 3204 3204 3204 3204 3204 3204 3204 3204 3204 3204 3204 3204 3203 3203 3203 3203 3202 3202 3201 3200 3199 3198 3198 3197 3197 3196 3196 3196 3195 3194 3194 3194 3193 3193 3193 3193 3192 3192 3192 3191 3191 3191 3191 3191 3191 3190 3190 3190 3190 3190 3190 3190 3190 3189 3189 3189 3189
3183 3183 3184 3184 3185 3185 3186 3187 3188 3189 3190 3190 3191 3192 3193 3193 3194 3195 3196 3197 3198 3199 3200 3200 3201 3201 3202 3202 3202 3202 3202 3203 3203 3203 3203 3203 3203 3203 3203 3203 3202 3202 3202 3202 3202 3202 3201 3199 3199 3198 3198 3197 3197 3196 3196 3196 3195 3195 3194 3194 3193 3193 3193 3192 3192 3192 3191 3191 3191 3191 3191 3191 3190 3190 3190 3190 3190 3190 3190 3190 3189 3189 3189 3189 3189
3182 3182 3183 3183 3183 3184 3184 3185 3186 3187 3188 3188 3189 3190 3191 3192 3192 3193 3194 3195 3196 3197 3198 3198 3199 3199 3200 3200 3201 3201 3201 3201 3201 3201 3202 3202 3202 3202 3202 3202 3202 3201 3201 3201 3201 3201 3200 3199 3198 3198 3197 3197 3196 3196 3195 3195 3195 3194 3194 3193 3193 3192 3192 3192 3191 3191 3191 3190 3190 3190 3190 3190 3190 3190 3190 3189 3189 3189 3189 3189 3189 3189 3189 3189 3188
3182 3182 3182 3182 3183 3183 3183 3184 3185 3185 3186 3187 3187 3189 3190 3190 3190 3191 3192 3193 3194 3195 3196 3196 3197 3198 3198 3198 3199 3199 3199 3199 3200 3200 3200 3201 3201 3201 3201 3201 3201 3201 3200 3200 3200 3200 3199 3199 3198 3197 3197 3196 3196 3195 3195 3194 3194 3194 3194 3193 3192 3192 3191 3191 3191 3190 3190 3190 3190 3190 3189 3189 3189 3189 3189 3189 3189 3189 3188 3188 3188 3188 3188 3188 3188
3181 3181 3181 3181 3182 3182 3182 3182 3183 3184 3184 3185 3186 3187 3188 3188 3189 3189 3190 3191 3192 3193 3193 3194 3195 3196 3196 3197 3197 3197 3197 3198 3198 3198 3198 3199 3199 3199 3200 3200 3200 3200 3199 3199 3199 3199 3198 3198 3197 3196 3196 3196 3195 3195 3194 3193 3193 3193 3193 3192 3192 3191 3191 3190 3190 3190 3190 3189 3189 3189 3189 3188 3188 3188 3188 3188 3188 3187 3187 3187 3187 3187 3187 3186 3186
3180 3180 3180 3180 3181 3182 3181 3181 3182 3182 3183 3184 3184 3185 3186 3187 3187 3187 3188 3189 3190 3190 3191 3192 3193 3193 3194 3195 3195 3196 3196 3196 3197 3197 3197 3197 3198 3198 3198 3198 3198 3198 3198 3198 3197 3197 3197 3196 3196 3195 3195 3195 3195 3194 3193 3192 3192 3192 3192 3192 3191 3191 3190 3190 3190 3190 3189 3189 3188 3188 3188 3187 3187 3187 3187 3186 3186 3186 3186 3186 3186 3185 3185 3185 3185
3180 3180 3180 3180 3180 3181 3180 3180 3180 3181 3182 3182 3183 3184 3184 3185 3185 3186 3186 3186 3187 3188 3189 3190 3190 3191 3192 3193 3194 3194 3194 3195 3195 3195 3196 3196 3196 3196 3197 3197 3197 3196 3196 3196 3196 3196 3196 3195 3194 3194 3194 3194 3193 3193 3192 3191 3191 3191 3191 3191 3190 3190 3189 3189 3189 3189 3189 3188 3188 3187 3187 3187 3186 3186 3186 3186 3185 3185 3185 3184 3184 3184 3184 3184 3183
3178 3179 3179 3179 3179 3179 3179 3178 3178 3179 3179 3180 3181 3182 3182 3183 3184 3184 3184 3184 3185 3185 3186 3187 3188 3189 3190 3191 3192 3192 3192 3193 3193 3193 3194 3194 3194 3195 3195 3195 3195 3195 3195 3195 3195 3195 3194 3193 3193 3193 3193 3192 3192 3191 3191 3190 3190 3190 3190 3189 3189 3189 3188 3188 3188 3188 3188 3187 3187 3186 3186 3186 3185 3185 3185 3185 3184 3184 3183 3183 3183 3182 3182 3182 3182
3176 3177 3177 3177 3177 3177 3177 3176 3177 3177 3177 3178 3179 3179 3180 3181 3182 3182 3183 3183 3183 3184 3184 3185 3185 3186 3187 3188 3189 3190 3190 3191 3191 3191 3192 3192 3192 3193 3193 3193 3193 3193 3193 3194 3194 3193 3193 3192 3191 3191 3191 3191 3190 3190 3189 3189 3189 3189 3188 3188 3187 3187 3187 3187 3187 3187 3187 3186 3185 3185 3185 3185 3184 3184 3184 3183 3183 3182 3182 3182 3181 3181 3180 3180 3180
3174 3174 3174 3174 3174 3174 3174 3175 3175 3176 3176 3176 3177 3177 3178 3178 3179 3180 3180 3181 3182 3182 3183 3183 3184 3184 3185 3186 3187 3187 3188 3188 3189 3189 3190 3190 3190 3190 3191 3191 3191 3191 3191 3192 3192 3191 3191 3190 3190 3189 3189 3189 3189 3189 3188 3188 3188 3187 3187 3186 3186 3186 3186 3186 3186 3186 3186 3185 3184 3184 3184 3183 3183 3182 3182 3181 3181 3181 3180 3180 3180 3179 3179 3178 3178
3171 3172 3171 3171 3171 3171 3172 3173 3174 3174 3175 3175 3175 3175 3176 3176 3177 3177 3178 3178 3179 3180 3181 3182 3182 3183 3183 3184 3185 3185 3186 3186 3187 3187 3188 3188 3188 3188 3189 3189 3189 3189 3189 3189 3189 3189 3189 3189 3188 3187 3187 3187 3187 3187 3187 3186 3186 3186 3185 3185 3185 3184 3184 3184 3184 3185 3184 3184 3183 3182 3182 3182 3181 3181 3180 3180 3179 3179 3178 3178 3178 3177 3177 3177 3176
3168 3169 3169 3169 3169 3170 3170 3171 3172 3173 3173 3173 3173 3173 3174 3174 3175 3175 3175 3175 3176 3177 3178 3179 3180 3180 3181 3182 3182 3183 3184 3184 3185 3185 3186 3186 3186 3187 3186 3186 3187 3187 3187 3187 3187 3187 3187 3186 3185 3185 3185 3185 3185 3185 3184 3184 3184 3184 3184 3184 3183 3183 3183 3183 3183 3183 3183 3182 3181 3181 3180 3180 3180 3179 3179 3178 3177 3177 3176 3176 3175 3175 3175 3174 3174
3165 3166 3167 3167 3168 3168 3169 3170 3170 3171 3171 3171 3171 3171 3171 3171 3172 3173 3173 3173 3174 3174 3175 3176 3177 3177 3178 3179 3180 3180 3181 3181 3182 3183 3183 3184 3184 3184 3184 3184 3184 3185 3185 3185 3185 3184 3184 3184 3183 3183 3183 3183 3183 3182 3182 3182 3182 3182 3182 3182 3181 3181 3181 3181 3181 3181 3181 3180 3179 3179 3178 3178 3178 3177 3177 3176 3175 3175 3174 3174 3173 3173 3172 3172 3172
3163 3164 3164 3165 3165 3166 3167 3167 3168 3168 3169 3169 3169 3168 3169 3169 3170 3170 3171 3171 3172 3172 3173 3173 3174 3174 3175 3176 3177 3177 3178 3179 3180 3180 3181 3181 3182 3182 3182 3182 3182 3182 3182 3182 3182 3182 3181 3181 3181 3181 3181 3181 3181 3181 3181 3180 3180 3179 3179 3180 3180 3180 3179 3179 3179 3179 3178 3177 3177 3176 3176 3176 3176 3175 3174 3174 3173 3172 3171 3171 3171 3171 3170 3170 3169
3161 3161 3162 3162 3163 3163 3164 3164 3165 3165 3166 3166 3166 3166 3166 3167 3167 3167 3168 3169 3169 3170 3170 3171 3171 3172 3172 3173 3174 3175 3176 3177 3177 3178 3178 3179 3179 3179 3179 3179 3180 3179 3179 3179 3179 3179 3179 3179 3178 3179 3179 3178 3178 3178 3178 3178 3177 3177 3177 3177 3177 3177 3176 3176 3176 3176 3175 3175 3174 3174 3173 3173 3173 3173 3172 3171 3171 3170 3169 3168 3168 3168 3168 3167 3167
3159 3159 3159 3160 3160 3160 3161 3161 3162 3162 3163 3163 3164 3164 3164 3164 3164 3165 3165 3166 3167 3167 3167 3168 3169 3169 3169 3170 3171 3172 3173 3174 3174 3175 3175 3176 3176 3177 3177 3177 3177 3177 3177 3177 3176 3176 3176 3175 3175 3176 3176 3175 3175 3175 3175 3175 3175 3175 3175 3175 3175 3174 3174 3173 3173 3173 3173 3172 3172 3172 3171 3170 3170 3170 3169 3168 3168 3167 3166 3165 3165 3165 3164 3164 3164
3157 3157 3157 3157 3158 3158 3158 3158 3159 3160 3160 3160 3161 3161 3161 3161 3162 3162 3163 3163 3164 3164 3165 3165 3165 3165 3166 3168 3169 3169 3170 3170 3171 3171 3172 3173 3173 3173 3173 3174 3174 3174 3174 3174 3173 3172 3172 3172 3172 3172 3172 3172 3172 3171 3171 3172 3172 3172 3172 3172 3172 3171 3171 3170 3170 3170 3170 3170 3170 3169 3168 3167 3167 3167 3166 3165 3164 3164 3163 3162 3162 3161 3161 3161 3161
3155 3155 3155 3155 3155 3155 3156 3156 3156 3156 3157 3157 3157 3157 3157 3158 3158 3159 3159 3160 3160 3161 3161 3161 3161 3162 3165 3166 3166 3166 3167 3167 3167 3168 3169 3169 3169 3170 3170 3170 3170 3171 3171 3171 3170 3169 3169 3169 3169 3169 3169 3168 3166 3166 3169 3171 3170 3170 3169 3169 3168 3168 3168 3167 3167 3167 3166 3166 3165 3165 3165 3164 3163 3163 3163 3162 3161 3160 3160 3159 3158 3158 3158 3159 3159
3153 3153 3153 3153 3153 3153 3153 3153 3153 3153 3153 3153 3153 3154 3154 3154 3155 3155 3156 3156 3157 3157 3157 3157 3158 3161 3163 3162 3162 3162 3163 3164 3164 3165 3165 3165 3165 3166 3166 3166 3167 3167 3168 3168 3167 3166 3166 3166 3165 3165 3165 3163 3161 3162 3166 3169 3168 3166 3165 3164 3164 3164 3164 3163 3163 3162 3162 3161 3161 3162 3162 3160 3159 3159 3159 3158 3157 3156 3156 3155 3155 3156 3156 3157 3157
3151 3151 3150 3150 3150 3150 3150 3150 3150 3150 3150 3150 3150 3150 3150 3150 3151 3152 3152 3153 3154 3154 3153 3154 3156 3158 3158 3158 3158 3159 3160 3160 3161 3161 3161 3162 3162 3162 3162 3162 3163 3164 3164 3164 3163 3163 3163 3162 3162 3162 3161 3159 3158 3159 3162 3164 3163 3160 3160 3160 3161 3161 3160 3160 3160 3159 3157 3157 3158 3159 3157 3154 3154 3154 3154 3153 3153 3152 3152 3153 3153 3154 3154 3154 3154
3148 3148 3148 3147 3147 3147 3147 3147 3146 3146 3146 3146 3146 3146 3146 3146 3146 3147 3148 3149 3150 3150 3150 3151 3153 3154 3153 3153 3155 3156 3156 3156 3157 3157 3158 3158 3158 3158 3158 3158 3159 3160 3161 3160 3159 3159 3159 3158 3158 3158 3158 3157 3156 3156 3157 3158 3157 3155 3155 3155 3155 3155 3156 3155 3155 3154 3153 3154 3155 3155 3153 3151 3150 3150 3149 3148 3148 3148 3148 3149 3150 3150 3151 3151 3152